User: anonymous   Login
Location: Caltech
(34.1382°N, 118.1253°W)
Time: 12:06:43
(UTC-08:00)
Language:

Cosmos 1733 Rocket - Orbit

View from above orbital plane
View from above orbital plane
View from above satellite
View from above satellite

Ground track
Ground track

The orbit data is extracted from the following two-line orbital elements,

1 16612U 86018B   14353.71982508  .00000815  00000-0  95493-4 0   994
2 16612 082.5174 070.4857 0016313 276.6394 197.1610 14.83754184456428
Epoch (UTC): 19 December 2014 17:16:32
Eccentricity: 0.0016313
inclination: 82.5174°
perigee height: 606 km
apogee height: 629 km
right ascension of ascending node: 70.4857°
argument of perigee: 276.6394°
revolutions per day: 14.83754184
mean anomaly at epoch: 197.1610°
orbit number at epoch: 45642

The dashed part of the orbit path shows where the satellite is in the earth's shadow,  

DLR